�������l�o���
Date,Time,MP-1(��Sv/h),MP-2(��Sv/h),MP-3(��Sv/h),MP-4(��Sv/h),MP-5(��Sv/h),MP-6(��Sv/h),MP-7(��Sv/h),MP-8(��Sv/h),����,����(m/s),���J
2015/12/15,00:00,1.665,2.648,3.103,2.868,-,0.868,1.532,1.458,�k��,5.3,��
2015/12/15,00:10,1.660,2.650,3.103,2.870,-,0.867,1.532,1.457,�k�k��,5.3,��
2015/12/15,00:20,1.662,2.648,3.102,2.870,-,0.865,1.532,1.458,�k�k��,5.2,��
2015/12/15,00:30,1.662,2.648,3.103,2.870,-,0.867,1.530,1.458,�k��,4.6,��
2015/12/15,00:40,1.660,2.652,3.102,2.870,-,0.867,1.533,1.458,�k��,4.8,��
2015/12/15,00:50,1.662,2.653,3.107,2.875,-,0.867,1.532,1.460,�k��,4.9,��
2015/12/15,01:00,1.663,2.648,3.103,2.868,-,0.865,1.533,1.458,�k��,4.7,��
2015/12/15,01:10,1.663,2.652,3.108,2.868,-,0.868,1.530,1.457,�k��,4.3,��
2015/12/15,01:20,1.658,2.652,3.105,2.868,-,0.865,1.530,1.457,�k��,4.0,��
2015/12/15,01:30,1.662,2.650,3.103,2.868,-,0.867,1.530,1.455,�k��,4.0,��
2015/12/15,01:40,1.665,2.650,3.105,2.867,-,0.867,1.530,1.460,�k��,3.1,��
2015/12/15,01:50,1.663,2.650,3.103,2.870,-,0.865,1.528,1.457,�k�k��,3.5,��
2015/12/15,02:00,1.663,2.650,3.107,2.873,-,0.867,1.532,1.458,�k�k��,3.7,��
2015/12/15,02:10,1.662,2.648,3.107,2.870,-,0.867,1.532,1.460,�k�k��,3.5,��
2015/12/15,02:20,1.662,2.648,3.105,2.870,-,0.867,1.532,1.460,�k�k��,3.7,��
2015/12/15,02:30,1.658,2.648,3.105,2.870,-,0.863,1.532,1.458,�k�k��,3.9,��
2015/12/15,02:40,1.662,2.647,3.108,2.870,-,0.865,1.532,1.458,�k�k��,3.8,��
2015/12/15,02:50,1.667,2.648,3.108,2.868,-,0.868,1.532,1.455,�k�k��,4.7,��
2015/12/15,03:00,1.662,2.645,3.107,2.868,-,0.867,1.533,1.457,�k�k��,4.4,��
2015/12/15,03:10,1.660,2.648,3.105,2.870,-,0.865,1.532,1.457,�k�k��,4.2,��
2015/12/15,03:20,1.665,2.648,3.107,2.870,-,0.868,1.532,1.455,�k�k��,4.3,��
2015/12/15,03:30,1.662,2.647,3.107,2.868,-,0.868,1.533,1.453,�k�k��,4.2,��
2015/12/15,03:40,1.662,2.650,3.107,2.872,-,0.867,1.532,1.455,�k��,3.5,��
2015/12/15,03:50,1.660,2.652,3.100,2.868,-,0.865,1.532,1.457,�k��,4.2,��
2015/12/15,04:00,1.660,2.652,3.103,2.868,-,0.865,1.532,1.455,�k��,3.9,��
2015/12/15,04:10,1.660,2.650,3.102,2.868,-,0.868,1.530,1.457,�k��,3.0,��
2015/12/15,04:20,1.663,2.648,3.107,2.870,-,0.865,1.533,1.455,�k��,3.2,��
2015/12/15,04:30,1.665,2.655,3.102,2.865,-,0.865,1.533,1.460,�k��,2.8,��
2015/12/15,04:40,1.662,2.650,3.100,2.865,-,0.865,1.532,1.458,�k��,3.4,��
2015/12/15,04:50,1.660,2.647,3.102,2.865,-,0.867,1.528,1.457,�k��,3.4,��
2015/12/15,05:00,1.657,2.648,3.102,2.867,-,0.867,1.532,1.455,�k��,3.3,��
2015/12/15,05:10,1.662,2.648,3.100,2.868,-,0.868,1.532,1.455,�k��,2.2,��
2015/12/15,05:20,1.658,2.648,3.102,2.867,-,0.862,1.528,1.457,�k��,2.8,��
2015/12/15,05:30,1.662,2.650,3.100,2.868,-,0.865,1.532,1.455,�k��,3.4,��
2015/12/15,05:40,1.663,2.648,3.100,2.867,-,0.862,1.533,1.457,�k�k��,3.7,��
2015/12/15,05:50,1.662,2.647,3.103,2.870,-,0.860,1.532,1.458,�k�k��,3.8,��
2015/12/15,06:00,1.663,2.647,3.100,2.868,-,0.863,1.533,1.460,�k�k��,3.9,��
2015/12/15,06:10,1.665,2.650,3.103,2.867,-,0.858,1.530,1.455,�k��,3.2,��
2015/12/15,06:20,1.662,2.648,3.107,2.865,-,0.860,1.530,1.457,�k��,3.2,��
2015/12/15,06:30,1.665,2.647,3.102,2.868,-,0.860,1.532,1.457,�k��,3.0,��
2015/12/15,06:40,1.660,2.647,3.102,2.867,-,0.863,1.528,1.457,���k��,3.2,��
2015/12/15,06:50,1.660,2.645,3.100,2.868,-,0.862,1.528,1.455,���k��,2.3,��
2015/12/15,07:00,1.658,2.645,3.103,2.867,-,0.863,1.530,1.457,�k��,1.4,��
2015/12/15,07:10,1.663,2.645,3.102,2.870,-,0.863,1.532,1.458,�k��,2.0,��
2015/12/15,07:20,1.660,2.648,3.100,2.870,-,0.862,1.533,1.457,�k��,1.7,��
2015/12/15,07:30,1.658,2.647,3.098,2.867,-,0.862,1.532,1.460,�k��,1.4,��
2015/12/15,07:40,1.662,2.647,3.102,2.868,-,0.862,1.530,1.458,�k��,1.2,��
2015/12/15,07:50,1.658,2.650,3.102,2.867,-,0.860,1.527,1.458,�k�k��,1.5,��
2015/12/15,08:00,1.658,2.648,3.100,2.867,-,0.860,1.528,1.457,�k�k��,1.9,��
2015/12/15,08:10,1.658,2.647,3.102,2.867,-,0.857,1.528,1.457,�k��,1.4,��
2015/12/15,08:20,1.663,2.652,3.100,2.862,-,0.858,1.532,1.457,�k��,1.7,��
2015/12/15,08:30,1.663,2.647,3.105,2.865,-,0.860,1.530,1.455,���k��,1.5,��
2015/12/15,08:40,1.665,2.653,3.105,2.868,-,0.862,1.532,1.457,�k��,2.6,��
2015/12/15,08:50,1.663,2.648,3.105,2.872,-,0.860,1.530,1.458,�k��,3.1,��
2015/12/15,09:00,1.660,2.650,3.107,2.873,-,0.860,1.530,1.460,�k�k��,2.8,��
2015/12/15,09:10,1.660,2.650,3.105,2.872,-,0.862,1.530,1.455,�k�k��,1.7,��
2015/12/15,09:20,1.663,2.652,3.110,2.872,-,0.860,1.532,1.458,�k��,0.6,��
2015/12/15,09:30,1.663,2.652,3.110,2.872,-,0.860,1.532,1.458,�k�k��,2.3,��
2015/12/15,09:40,1.662,2.652,3.110,2.873,-,0.862,1.530,1.458,�k�k��,3.3,��
2015/12/15,09:50,1.665,2.655,3.113,2.877,-,0.862,1.533,1.455,�k,2.3,��
2015/12/15,10:00,1.665,2.657,3.110,2.877,-,0.865,1.533,1.457,�k�k��,2.3,��
2015/12/15,10:10,1.663,2.657,3.112,2.875,-,0.865,1.532,1.458,�k,1.9,��
2015/12/15,10:20,1.667,2.657,3.112,2.873,-,0.865,1.533,1.458,�k,1.9,��
2015/12/15,10:30,1.668,2.652,3.112,2.873,-,0.865,1.533,1.458,�k�k��,2.8,��
2015/12/15,10:40,1.667,2.655,3.112,2.872,-,0.865,1.533,1.458,�k,2.0,��
2015/12/15,10:50,1.665,2.655,3.113,2.875,-,0.867,1.532,1.457,�k�k��,1.9,��
2015/12/15,11:00,1.667,2.658,3.115,2.878,-,0.865,1.535,1.458,�k,1.7,��
2015/12/15,11:10,1.667,2.653,3.113,2.873,-,0.862,1.535,1.458,�k�k��,1.2,��
2015/12/15,11:20,1.667,2.658,3.115,2.873,-,0.863,1.533,1.460,�k�k��,1.4,��
2015/12/15,11:30,1.667,2.655,3.117,2.877,-,0.865,1.535,1.460,�k�k��,1.2,��
2015/12/15,11:40,1.667,2.653,3.113,2.878,-,0.865,1.535,1.460,���k��,1.7,��
2015/12/15,11:50,1.670,2.658,3.112,2.878,-,0.863,1.535,1.458,���k��,0.6,��
2015/12/15,12:00,1.665,2.653,3.113,2.877,-,0.867,1.535,1.460,-,CALM,��
2015/12/15,12:10,1.667,2.653,3.113,2.877,-,0.865,1.535,1.460,��,0.6,��
2015/12/15,12:20,1.670,2.653,3.115,2.877,-,0.863,1.537,1.460,-,CALM,��
2015/12/15,12:30,1.668,2.655,3.115,2.875,-,0.863,1.535,1.460,���k��,1.2,��
2015/12/15,12:40,1.667,2.655,3.113,2.875,-,0.867,1.535,1.460,-,CALM,��
2015/12/15,12:50,1.670,2.655,3.115,2.877,-,0.865,1.538,1.460,-,CALM,��
2015/12/15,13:00,1.670,2.657,3.117,2.875,-,0.862,1.538,1.462,-,CALM,��
2015/12/15,13:10,1.668,2.655,3.117,2.878,-,0.867,1.535,1.460,-,CALM,��
2015/12/15,13:20,1.665,2.655,3.118,2.877,-,0.868,1.535,1.457,�쓌,0.6,��
2015/12/15,13:30,1.667,2.657,3.115,2.878,-,0.865,1.535,1.460,��,0.9,��
2015/12/15,13:40,1.667,2.657,3.118,2.877,-,0.865,1.537,1.462,��,0.6,��
2015/12/15,13:50,1.672,2.663,3.118,2.878,-,0.865,1.537,1.463,-,CALM,��
2015/12/15,14:00,1.665,2.658,3.120,2.877,-,0.867,1.537,1.462,��,0.6,��
2015/12/15,14:10,1.667,2.660,3.113,2.880,-,0.867,1.535,1.458,��쓌,0.9,��
2015/12/15,14:20,1.672,2.660,3.115,2.878,-,0.867,1.535,1.460,��,1.5,��
2015/12/15,14:30,1.668,2.660,3.117,2.880,-,0.868,1.538,1.458,��쓌,2.3,��
2015/12/15,14:40,1.663,2.657,3.120,2.880,-,0.868,1.538,1.460,��쓌,2.8,��
2015/12/15,14:50,1.665,2.658,3.118,2.880,-,0.867,1.537,1.460,��쓌,2.6,��
2015/12/15,15:00,1.670,2.655,3.118,2.878,-,0.868,1.537,1.462,��쓌,2.9,��
2015/12/15,15:10,1.670,2.658,3.117,2.878,-,0.865,1.537,1.458,��쓌,2.0,��
2015/12/15,15:20,1.670,2.658,3.115,2.875,-,0.863,1.535,1.457,��쓌,2.0,��
2015/12/15,15:30,1.668,2.658,3.115,2.877,-,0.868,1.535,1.460,��쓌,2.8,��
2015/12/15,15:40,1.672,2.658,3.117,2.878,-,0.868,1.538,1.458,�쓌,2.2,��
2015/12/15,15:50,1.670,2.658,3.113,2.878,-,0.867,1.533,1.462,��쓌,2.0,��
2015/12/15,16:00,1.668,2.653,3.115,2.878,-,0.868,1.538,1.460,��쓌,1.4,��
2015/12/15,16:10,1.670,2.660,3.117,2.877,-,0.865,1.538,1.458,��쓌,1.2,��
2015/12/15,16:20,1.667,2.662,3.117,2.875,-,0.870,1.537,1.458,��쐼,0.9,��
2015/12/15,16:30,1.670,2.658,3.118,2.878,-,0.870,1.535,1.457,-,CALM,��
2015/12/15,16:40,1.672,2.658,3.117,2.878,-,0.870,1.537,1.460,��쐼,1.7,��
2015/12/15,16:50,1.673,2.658,3.115,2.877,-,0.870,1.535,1.458,��,2.0,��
2015/12/15,17:00,1.670,2.658,3.115,2.880,-,0.872,1.537,1.458,��,2.5,��
2015/12/15,17:10,1.668,2.657,3.113,2.878,-,0.870,1.535,1.460,��쓌,2.3,��
2015/12/15,17:20,1.668,2.653,3.115,2.875,-,0.867,1.538,1.460,��쓌,2.6,��
2015/12/15,17:30,1.668,2.658,3.117,2.878,-,0.867,1.537,1.462,��쓌,2.9,��
2015/12/15,17:40,1.673,2.662,3.113,2.878,-,0.867,1.537,1.462,�쓌,3.4,��
2015/12/15,17:50,1.672,2.658,3.113,2.875,-,0.872,1.535,1.458,�쓌,2.9,��
2015/12/15,18:00,1.670,2.655,3.113,2.875,-,0.870,1.533,1.458,�쓌,2.3,��
2015/12/15,18:10,1.667,2.660,3.113,2.873,-,0.868,1.533,1.460,��쓌,2.0,��
2015/12/15,18:20,1.667,2.657,3.112,2.875,-,0.867,1.535,1.462,��,1.5,��
2015/12/15,18:30,1.670,2.657,3.113,2.878,-,0.867,1.535,1.460,��쓌,1.9,��
2015/12/15,18:40,1.670,2.655,3.108,2.877,-,0.868,1.533,1.460,�쓌,2.0,��
2015/12/15,18:50,1.672,2.655,3.110,2.875,-,0.872,1.535,1.460,��,2.3,��
2015/12/15,19:00,1.668,2.655,3.113,2.875,-,0.872,1.535,1.462,��쓌,2.5,��
2015/12/15,19:10,1.670,2.655,3.110,2.875,-,0.870,1.538,1.460,�쓌,2.0,��
2015/12/15,19:20,1.672,2.655,3.112,2.877,-,0.870,1.533,1.460,��쓌,2.6,��
2015/12/15,19:30,1.672,2.652,3.110,2.878,-,0.870,1.537,1.458,��쓌,3.2,��
2015/12/15,19:40,1.668,2.652,3.115,2.877,-,0.867,1.533,1.460,��,3.9,��
2015/12/15,19:50,1.675,2.652,3.113,2.877,-,0.868,1.532,1.458,��,3.9,��
2015/12/15,20:00,1.672,2.658,3.113,2.877,-,0.870,1.535,1.460,��,3.4,��
2015/12/15,20:10,1.670,2.655,3.113,2.877,-,0.868,1.532,1.458,��쓌,2.5,��
2015/12/15,20:20,1.672,2.655,3.113,2.872,-,0.870,1.535,1.458,��쓌,2.8,��
2015/12/15,20:30,1.673,2.657,3.113,2.875,-,0.870,1.535,1.457,��,3.6,��
2015/12/15,20:40,1.673,2.655,3.113,2.877,-,0.870,1.533,1.460,��,4.4,��
2015/12/15,20:50,1.675,2.655,3.112,2.877,-,0.870,1.535,1.460,��쐼,4.3,��
2015/12/15,21:00,1.673,2.653,3.113,2.875,-,0.870,1.535,1.462,��,5.0,��
2015/12/15,21:10,1.673,2.658,3.107,2.877,-,0.870,1.537,1.457,��,5.0,��
2015/12/15,21:20,1.673,2.652,3.112,2.880,-,0.868,1.535,1.460,��,5.0,��
2015/12/15,21:30,1.673,2.655,3.115,2.877,-,0.870,1.535,1.458,��,6.6,��
2015/12/15,21:40,1.670,2.657,3.113,2.873,-,0.867,1.535,1.462,��쓌,7.2,��
2015/12/15,21:50,1.672,2.655,3.113,2.875,-,0.868,1.537,1.460,��쓌,6.4,��
2015/12/15,22:00,1.670,2.658,3.113,2.878,-,0.872,1.535,1.458,��,5.7,��
2015/12/15,22:10,1.673,2.660,3.112,2.878,-,0.872,1.537,1.460,��,5.7,��
2015/12/15,22:20,1.672,2.657,3.115,2.877,-,0.870,1.535,1.460,��,5.4,��
2015/12/15,22:30,1.673,2.658,3.115,2.875,-,0.870,1.538,1.458,��,5.8,��
2015/12/15,22:40,1.670,2.660,3.113,2.877,-,0.873,1.538,1.462,��,6.2,��
2015/12/15,22:50,1.672,2.655,3.113,2.875,-,0.873,1.537,1.462,��,5.8,��
2015/12/15,23:00,1.672,2.660,3.110,2.877,-,0.875,1.535,1.462,��,5.5,��
2015/12/15,23:10,1.672,2.655,3.113,2.880,-,0.872,1.538,1.463,��,3.7,��
2015/12/15,23:20,1.670,2.660,3.113,2.878,-,0.875,1.535,1.460,��,3.9,��
2015/12/15,23:30,1.672,2.657,3.113,2.877,-,0.872,1.537,1.458,��쓌,1.9,��
2015/12/15,23:40,1.670,2.657,3.112,2.880,-,0.872,1.540,1.462,��쐼,0.9,��
2015/12/15,23:50,1.673,2.655,3.115,2.877,-,0.870,1.538,1.460,�쐼,1.4,��
